Giove Jet — IJNX — position and weather

sailwx.info

Track history (hours):
 
Tides and Currents Weather Stations Pressure Air Temp Water Temp Dewpoint Dewpoint Depression Visibility Wind Speed Wind Dir Waves Ship Positions

Giove Jet

Last reported at 2014-Jul-21 14:34 UTC. Time now 2014-Jul-22 23:36 UTC.
Position N 40°46' E 014°02'.

Length 33 m; draft 1.5 m.

Type: Ship. MMSI: 247049500.

Date/timePositionNaut miles runAvg speedWind from/ knotsBaromVisibWave heightAir tempDewpointWater temp
2014-Jul-21 14:34N 40°46' E 014°02'8 8.2
2014-Jul-21 13:33N 40°44' E 013°52'0 0.0
2014-Jul-21 12:33N 40°44' E 013°52'4 4.1
2014-Jul-21 11:34N 40°46' E 013°56'8 4.1
2014-Jul-21 09:34N 40°46' E 014°07'1212.0
2014-Jul-21 08:33N 40°45' E 013°52'2 1.0
2014-Jul-21 06:34N 40°46' E 013°54'2 2.4
2014-Jul-21 05:34N 40°45' E 013°56'0 0.0
2014-Jul-20 19:29N 40°45' E 013°56'1612.9
2014-Jul-20 18:14N 40°50' E 014°16'1421.2
2014-Jul-20 17:34N 40°44' E 013°59'6 5.5
2014-Jul-20 16:33N 40°45' E 014°06'4 3.7
2014-Jul-20 15:34N 40°44' E 014°01'4 4.0
2014-Jul-20 14:33N 40°46' E 014°06'4 4.2
2014-Jul-20 13:29N 40°47' E 014°12'1212.8
2014-Jul-20 12:33N 40°45' E 013°56'1010.3
2014-Jul-20 11:32N 40°47' E 014°10'0 0.4
2014-Jul-20 10:23N 40°46' E 014°10'911.2
2014-Jul-20 09:33N 40°45' E 013°58'10 8.6
2014-Jul-20 08:27N 40°47' E 014°10'5 5.7
2014-Jul-20 07:34N 40°45' E 014°04'6 0.4
2014-Jul-19 16:25N 40°45' E 013°56'5 2.9
2014-Jul-19 14:34N 40°45' E 014°04'9 3.7
2014-Jul-19 12:07N 40°44' E 013°52'1220.7
2014-Jul-19 11:34N 40°46' E 014°07'4 3.8
2014-Jul-19 10:25N 40°47' E 014°12'1113.0
2014-Jul-19 09:34N 40°45' E 013°58'10 9.9
2014-Jul-19 08:30N 40°47' E 014°11'5 5.2
2014-Jul-19 07:34N 40°46' E 014°05'9 3.6
2014-Jul-19 05:08N 40°49' E 014°16'1526.6
2014-Jul-19 04:34N 40°45' E 013°56'0 0.0
2014-Jul-18 16:34N 40°45' E 013°56'6 2.9
2014-Jul-18 14:33N 40°46' E 014°04'9 9.2
2014-Jul-18 13:32N 40°44' E 013°52'0 0.0
2014-Jul-18 12:13N 40°44' E 013°52'811.9
2014-Jul-18 11:34N 40°47' E 014°01'2 1.1
2014-Jul-18 09:33N 40°46' E 014°04'6 6.3
2014-Jul-18 08:33N 40°46' E 013°56'13 9.5
2014-Jul-18 07:14N 40°47' E 014°13'1318.5
2014-Jul-18 06:33N 40°45' E 013°56'0 0.1
2014-Jul-18 04:33N 40°45' E 013°56'1 0.1
2014-Jul-17 19:34N 40°45' E 013°57'0 0.1
2014-Jul-17 17:34N 40°45' E 013°57'9 3.9
2014-Jul-17 15:16N 40°47' E 014°09'1013.6
2014-Jul-17 14:33N 40°45' E 013°56'10 4.7
2014-Jul-17 12:25N 40°47' E 014°09'5 5.5
2014-Jul-17 11:33N 40°46' E 014°03'7 5.3
2014-Jul-17 10:15N 40°47' E 014°12'1217.3
2014-Jul-17 09:33N 40°45' E 013°56'0 0.0
2014-Jul-16 19:33N 40°45' E 013°56'7 3.4
2014-Jul-16 17:34N 40°46' E 014°05'5 2.2
2014-Jul-16 15:23N 40°47' E 014°11'1214.2
2014-Jul-16 14:33N 40°45' E 013°56'12 2.8
2014-Jul-16 10:15N 40°47' E 014°12'1217.4
2014-Jul-16 09:33N 40°45' E 013°56'0 0.0
2014-Jul-15 19:34N 40°45' E 013°56'3 1.7
2014-Jul-15 17:34N 40°46' E 014°00'8 3.5
2014-Jul-15 15:20N 40°47' E 014°11'1114.3
2014-Jul-15 14:33N 40°45' E 013°56'12 5.8
2014-Jul-15 12:30N 40°47' E 014°12'8 8.3
2014-Jul-15 11:34N 40°47' E 014°02'7 5.4
2014-Jul-15 10:14N 40°47' E 014°11'1116.8
2014-Jul-15 09:33N 40°45' E 013°56'0 0.0
2014-Jul-14 19:30N 40°45' E 013°56'7 3.5
2014-Jul-14 17:34N 40°45' E 014°05'3 3.4
2014-Jul-14 16:33N 40°46' E 014°09'1 0.6
2014-Jul-14 15:17N 40°47' E 014°10'1114.8
2014-Jul-14 14:33N 40°45' E 013°56'10 4.9
2014-Jul-14 12:29N 40°47' E 014°09'1011.0
2014-Jul-14 11:33N 40°45' E 013°56'4 0.2
2014-Jul-13 15:34N 40°44' E 014°02'3 3.2
2014-Jul-13 14:33N 40°46' E 014°06'5 4.2
2014-Jul-13 13:28N 40°47' E 014°12'1213.0
2014-Jul-13 12:33N 40°45' E 013°56'3 3.4
2014-Jul-13 11:34N 40°44' E 014°01'1 0.3
2014-Jul-13 09:34N 40°44' E 014°00'2 2.5
2014-Jul-13 08:33N 40°45' E 013°57'12 8.8
2014-Jul-13 07:13N 40°47' E 014°12'1218.6
2014-Jul-13 06:33N 40°45' E 013°56'0 0.0
2014-Jul-13 04:33N 40°45' E 013°56'0 0.0
2014-Jul-12 16:17N 40°45' E 013°56'5 2.9
2014-Jul-12 14:34N 40°45' E 014°03'9 7.8
2014-Jul-12 13:28N 40°44' E 013°52'0 0.0
2014-Jul-12 12:32N 40°44' E 013°52'6 6.0
2014-Jul-12 11:34N 40°44' E 013°59'10 7.2
2014-Jul-12 10:08N 40°47' E 014°12'1424.4
2014-Jul-12 09:34N 40°45' E 013°54'6 5.7
2014-Jul-12 08:34N 40°44' E 014°02'8 6.2
2014-Jul-12 07:13N 40°47' E 014°12'1218.6
2014-Jul-12 06:34N 40°45' E 013°56'0 0.0
2014-Jul-12 04:04N 40°45' E 013°56'0 0.0
2014-Jul-11 16:34N 40°45' E 013°56'  
Track history (hours):
 
Tides and Currents Weather Stations Pressure Air Temp Water Temp Dewpoint Dewpoint Depression Visibility Wind Speed Wind Dir Waves Ship Positions

Giove Jet

Last reported at 2014-Jul-21 14:34 UTC. Time now 2014-Jul-22 23:36 UTC.
Position N 40°46' E 014°02'.

Length 33 m; draft 1.5 m.

Type: Ship. MMSI: 247049500.

Date/timePositionNaut miles runAvg speedWind from/ knotsBaromVisibWave heightAir tempDewpointWater temp
2014-Jul-21 14:34N 40°46' E 014°02'8 8.2
2014-Jul-21 13:33N 40°44' E 013°52'0 0.0
2014-Jul-21 12:33N 40°44' E 013°52'4 4.1
2014-Jul-21 11:34N 40°46' E 013°56'8 4.1
2014-Jul-21 09:34N 40°46' E 014°07'1212.0
2014-Jul-21 08:33N 40°45' E 013°52'2 1.0
2014-Jul-21 06:34N 40°46' E 013°54'2 2.4
2014-Jul-21 05:34N 40°45' E 013°56'0 0.0
2014-Jul-20 19:29N 40°45' E 013°56'1612.9
2014-Jul-20 18:14N 40°50' E 014°16'1421.2
2014-Jul-20 17:34N 40°44' E 013°59'6 5.5
2014-Jul-20 16:33N 40°45' E 014°06'4 3.7
2014-Jul-20 15:34N 40°44' E 014°01'4 4.0
2014-Jul-20 14:33N 40°46' E 014°06'4 4.2
2014-Jul-20 13:29N 40°47' E 014°12'1212.8
2014-Jul-20 12:33N 40°45' E 013°56'1010.3
2014-Jul-20 11:32N 40°47' E 014°10'0 0.4
2014-Jul-20 10:23N 40°46' E 014°10'911.2
2014-Jul-20 09:33N 40°45' E 013°58'10 8.6
2014-Jul-20 08:27N 40°47' E 014°10'5 5.7
2014-Jul-20 07:34N 40°45' E 014°04'6 0.4
2014-Jul-19 16:25N 40°45' E 013°56'5 2.9
2014-Jul-19 14:34N 40°45' E 014°04'9 3.7
2014-Jul-19 12:07N 40°44' E 013°52'1220.7
2014-Jul-19 11:34N 40°46' E 014°07'4 3.8
2014-Jul-19 10:25N 40°47' E 014°12'1113.0
2014-Jul-19 09:34N 40°45' E 013°58'10 9.9
2014-Jul-19 08:30N 40°47' E 014°11'5 5.2
2014-Jul-19 07:34N 40°46' E 014°05'9 3.6
2014-Jul-19 05:08N 40°49' E 014°16'1526.6
2014-Jul-19 04:34N 40°45' E 013°56'0 0.0
2014-Jul-18 16:34N 40°45' E 013°56'6 2.9
2014-Jul-18 14:33N 40°46' E 014°04'9 9.2
2014-Jul-18 13:32N 40°44' E 013°52'0 0.0
2014-Jul-18 12:13N 40°44' E 013°52'811.9
2014-Jul-18 11:34N 40°47' E 014°01'2 1.1
2014-Jul-18 09:33N 40°46' E 014°04'6 6.3
2014-Jul-18 08:33N 40°46' E 013°56'13 9.5
2014-Jul-18 07:14N 40°47' E 014°13'1318.5
2014-Jul-18 06:33N 40°45' E 013°56'0 0.1
2014-Jul-18 04:33N 40°45' E 013°56'1 0.1
2014-Jul-17 19:34N 40°45' E 013°57'0 0.1
2014-Jul-17 17:34N 40°45' E 013°57'9 3.9
2014-Jul-17 15:16N 40°47' E 014°09'1013.6
2014-Jul-17 14:33N 40°45' E 013°56'10 4.7
2014-Jul-17 12:25N 40°47' E 014°09'5 5.5
2014-Jul-17 11:33N 40°46' E 014°03'7 5.3
2014-Jul-17 10:15N 40°47' E 014°12'1217.3
2014-Jul-17 09:33N 40°45' E 013°56'0 0.0
2014-Jul-16 19:33N 40°45' E 013°56'7 3.4
2014-Jul-16 17:34N 40°46' E 014°05'5 2.2
2014-Jul-16 15:23N 40°47' E 014°11'1214.2
2014-Jul-16 14:33N 40°45' E 013°56'12 2.8
2014-Jul-16 10:15N 40°47' E 014°12'1217.4
2014-Jul-16 09:33N 40°45' E 013°56'0 0.0
2014-Jul-15 19:34N 40°45' E 013°56'3 1.7
2014-Jul-15 17:34N 40°46' E 014°00'8 3.5
2014-Jul-15 15:20N 40°47' E 014°11'1114.3
2014-Jul-15 14:33N 40°45' E 013°56'12 5.8
2014-Jul-15 12:30N 40°47' E 014°12'8 8.3
2014-Jul-15 11:34N 40°47' E 014°02'7 5.4
2014-Jul-15 10:14N 40°47' E 014°11'1116.8
2014-Jul-15 09:33N 40°45' E 013°56'0 0.0
2014-Jul-14 19:30N 40°45' E 013°56'7 3.5
2014-Jul-14 17:34N 40°45' E 014°05'3 3.4
2014-Jul-14 16:33N 40°46' E 014°09'1 0.6
2014-Jul-14 15:17N 40°47' E 014°10'1114.8
2014-Jul-14 14:33N 40°45' E 013°56'10 4.9
2014-Jul-14 12:29N 40°47' E 014°09'1011.0
2014-Jul-14 11:33N 40°45' E 013°56'4 0.2
2014-Jul-13 15:34N 40°44' E 014°02'3 3.2
2014-Jul-13 14:33N 40°46' E 014°06'5 4.2
2014-Jul-13 13:28N 40°47' E 014°12'1213.0
2014-Jul-13 12:33N 40°45' E 013°56'3 3.4
2014-Jul-13 11:34N 40°44' E 014°01'1 0.3
2014-Jul-13 09:34N 40°44' E 014°00'2 2.5
2014-Jul-13 08:33N 40°45' E 013°57'12 8.8
2014-Jul-13 07:13N 40°47' E 014°12'1218.6
2014-Jul-13 06:33N 40°45' E 013°56'0 0.0
2014-Jul-13 04:33N 40°45' E 013°56'0 0.0
2014-Jul-12 16:17N 40°45' E 013°56'5 2.9
2014-Jul-12 14:34N 40°45' E 014°03'9 7.8
2014-Jul-12 13:28N 40°44' E 013°52'0 0.0
2014-Jul-12 12:32N 40°44' E 013°52'6 6.0
2014-Jul-12 11:34N 40°44' E 013°59'10 7.2
2014-Jul-12 10:08N 40°47' E 014°12'1424.4
2014-Jul-12 09:34N 40°45' E 013°54'6 5.7
2014-Jul-12 08:34N 40°44' E 014°02'8 6.2
2014-Jul-12 07:13N 40°47' E 014°12'1218.6
2014-Jul-12 06:34N 40°45' E 013°56'0 0.0
2014-Jul-12 04:04N 40°45' E 013°56'0 0.0
2014-Jul-11 16:34N 40°45' E 013°56'  

Dump ship's entire track history